Agenzia del porto Bunker Vibo
  Sponsor: PORTO TURISTICO DI SORRENTO 

OBSERVATIONS
LATEST DOWNLOAD: 2019/01/20 05:42:32

STATION LFMN/076900
Sunday, 20 January 2019, 04:30 UTC

pressure 1012 hPa
temperature 7 °C
dewpoint 4 °C
humidity 81.2%
wind NNW-5 knots
visibility Good
sky Broken clouds
weather -

MAIN LOCATIONS

HOURLY DATA

HOTEL RESERVATION

WEATHER REPORT WEATHER REPORT

METEOMAR METEOMAR

WEATHER CHARTS WEATHER CHARTS

WEBCAM WEBCAM



 NICE
COUNTRY
FRANCE
     LAT
43.65 N
    LON
7.20 E
    ELEV
10 m
     REGION
-
     PROVINCE
-
     ZONE
-

LATEST 24 HOURS ( 48 OBSERVATIONS )
Observation time
UTC
temperature
humidity
%
pressure
hPa
  wind
knots
2019/01/20 04:307 811012NNW-5
2019/01/20 04:007 811012NNW-6
2019/01/20 03:307 871012NW-5
2019/01/20 03:007 871012WNW-6
2019/01/20 02:307 871013W-3
2019/01/20 02:008 811013WNW-6
2019/01/20 01:307 811013NNW-6
2019/01/20 01:007 811013NNW-5
2019/01/20 00:307 811013NNW-6
2019/01/20 00:007 811013NNW-7
2019/01/19 23:307 811013NNW-5
2019/01/19 23:007 811013NNW-7
2019/01/19 22:307 811013NW-8
2019/01/19 22:007 871013NNW-6
2019/01/19 21:307 811013NNW-5
2019/01/19 21:008 751013NNW-6
2019/01/19 20:308 811013NW-6
2019/01/19 20:008 811013WNW-3
2019/01/19 19:308 811013W-6
2019/01/19 19:008 811013WSW-7
2019/01/19 18:008 751013NNW-4
2019/01/19 17:308 751013NNW-6
2019/01/19 17:009 701012NNW-6
2019/01/19 16:309 701013NNW-7
2019/01/19 16:009 701013NNW-8
2019/01/19 15:308 751013WNW-12
2019/01/19 15:009 701013WNW-11
2019/01/19 14:309 701013WNW-11
2019/01/19 14:009 701013WNW-12
2019/01/19 13:3010 711013W-15
2019/01/19 13:0011 571013SSW-4
2019/01/19 12:3011 621013VAR-2
2019/01/19 12:0010 571013VAR-2
2019/01/19 11:3010 531014NNW-4
2019/01/19 11:009 531014NNW-6
2019/01/19 10:308 531014NNW-7
2019/01/19 10:008 531014NNW-11
2019/01/19 09:307 561014NW-10
2019/01/19 09:007 561014NNW-9
2019/01/19 08:307 561014NNW-8
2019/01/19 08:007 561013NNW-8
2019/01/19 07:306 601013N-7
2019/01/19 07:006 601013NNW-9
2019/01/19 06:306 601013NNW-7
2019/01/19 06:006 601013NNW-9
2019/01/19 05:306 601013NNW-7
2019/01/19 05:006 601013NNW-9
2019/01/19 04:306 601013NNW-8
( Previous data )

ARCHIVE   LOCAL FORECASTS   CLIMATE AVERAGES